Weather in El'ton

Russia / Volgograd Oblast     49°07′38″N   46°50′42″E
temp.,
°C
wind,
m/s
gust,
m/s
humid.,
%
clouds,
%
prec.,
mm/h
press.,
hPa
HPBL,
m
18 september, sat
sat1800:00+13ssw344516 0.0 101751
03:00+11sw334998 0.0 101738
06:00+12w3449100 0.0 101788
09:00+14ne444399 0.0 1019475
12:00+17ne543481 0.0 10191100
15:00+15ne5440100 0.0 1020727
18:00+14ne454398 0.0 1020407
21:00+13ene4739100 0.0 1020343
19 september, sun
sun1900:00+13e4838100 0.0 1021431
03:00+13e5838100 0.0 1021404
06:00+11e593893 0.0 1021309
09:00+14ese683399 0.0 1022567
12:00+20ese662924 0.0 10211444
15:00+21se672818 0.0 10191887
18:00+18ese6103484 0.0 1019269
21:00+15ese7133550 0.0 1019397
20 september, mon
mon2000:00+14ese7143450 0.0 1018346
03:00+14ese61328100 0.0 1018434
06:00+14ese7132697 0.0 1017451
09:00+16se71227100 0.0 1017546
12:00+17ese61132100 0.0 1016534
15:00+17ese61138100 0.1 1015522
18:00+17e5840100 0.0 1014192
21:00+16ese484563 0.0 1014116
21 september, tue
tue2100:00+14ssw337644 0.8 101435
03:00+15sse33665 0.9 101333
06:00+13w117859 0.0 101411
09:00+21sse455189 0.0 1014412
12:00+26s783879 0.0 10131480
15:00+25ssw8936100 0.0 10122086
18:00+17sw5882100 0.6 1014304
21:00+18s3681100 0.9 1013346
22 september, wed
wed2200:00+17sse41093100 6.9 1012508
03:00+15s61192100 10.8 1011518
06:00+15w358329 3.0 1012377
09:00+17w56595 3.0 1013827
12:00+19w56396 0.0 10131915
15:00+20wsw563514 0.0 10132166
18:00+17s114434 0.0 101413
21:00+17ssw2446100 0.0 1014166